Sevilla, Spain

7:10 PM CET on November 18, 2017 (GMT +0100)
San Pablo

Weather History for LEZL - October, 2011

Change the Weather History Date:

Tuesday, October 25, 2011

  Actual Average Record
Temperature  
Mean Temperature 60 °F -  
Max Temperature 68 °F 68 °F 87 °F (1996)
Min Temperature 51 °F 50 °F 51 °F (1998)
Degree Days  
Heating Degree Days 6    
Growing Degree Days 10 (Base 50)    
Moisture  
Dew Point 51 °F    
Average Humidity 70    
Maximum Humidity 94    
Minimum Humidity 49    
Precipitation  
Precipitation 0.00 in - - ()
Sea Level Pressure  
Sea Level Pressure 29.85 in    
Wind  
Wind Speed 4 mph ()    
Max Wind Speed 12 mph    
Max Gust Speed -    
Visibility 6.2 miles    
Events Rain    
Averages and records for this station are not official NWS values.
T = Trace of Precipitation, MM = Missing Value Source: Averaged Metar Reports

Daily Weather History Graph

Daily Weather History Graph

Search for Another Location

Airport or City:

Trip Planner

Search our weather history database for the weather conditions in past years. The results will help you decide how hot, cold, wet, or windy it might be!

Date:

Astronomy

Oct. 25, 2011 Rise Set
Actual Time 8:40 AM CEST 7:34 PM CEST
Civil Twilight 8:14 AM CEST 8:00 PM CEST
Nautical Twilight 7:43 AM CEST 8:31 PM CEST
Astronomical Twilight 7:13 AM CEST 9:01 PM CEST
Moon 6:56 AM CEST (10/25) 6:26 PM CEST (10/25)
Length of Visible Light 11h 46m
Length of Day
10h 53m
Waning Crescent, 3% of the Moon is Illuminated
Oct 25
Waning Crescent
Oct 26
New
Nov 2
First Quarter
Nov 10
Full
Nov 18
Last Quarter

Hourly Weather History & Observations

Time (CEST) Temp. Dew Point Humidity Pressure Visibility Wind Dir Wind Speed Gust Speed Precip Events Conditions
12:00 AM 60.8 °F 51.8 °F 72% 29.71 in - WNW 5.8 mph - N/A   Clear
12:30 AM 59.0 °F 51.8 °F 77% 29.71 in - Calm Calm - N/A   Clear
1:00 AM 60.8 °F 51.8 °F 72% 29.71 in - Calm Calm - N/A   Clear
4:30 AM 57.2 °F 51.8 °F 82% 29.74 in - West 3.5 mph - N/A   Clear
5:00 AM 57.2 °F 51.8 °F 82% 29.77 in - West 3.5 mph - N/A   Clear
5:30 AM 57.2 °F 51.8 °F 82% 29.77 in - West 3.5 mph - N/A   Clear
6:00 AM 55.4 °F 48.2 °F 77% 29.77 in - WNW 2.3 mph - N/A   Clear
6:30 AM 55.4 °F 48.2 °F 77% 29.77 in - WNW 2.3 mph - N/A   Clear
7:00 AM 53.6 °F 48.2 °F 82% 29.80 in - Calm Calm - N/A   Clear
7:30 AM 53.6 °F 48.2 °F 82% 29.80 in - Calm Calm - N/A   Clear
8:00 AM 53.6 °F 50.0 °F 88% 29.80 in - Calm Calm - N/A   Clear
8:30 AM 51.8 °F 50.0 °F 94% 29.83 in - ESE 2.3 mph - N/A   Clear
9:00 AM 55.4 °F 51.8 °F 88% 29.83 in - Calm Calm - N/A   Clear
9:30 AM 55.4 °F 51.8 °F 88% 29.83 in - Calm Calm - N/A   Clear
10:00 AM 57.2 °F 51.8 °F 82% 29.86 in - Variable 1.2 mph - N/A   Clear
10:30 AM 57.2 °F 51.8 °F 82% 29.86 in - Calm Calm - N/A   Clear
11:00 AM 60.8 °F 51.8 °F 72% 29.86 in - Calm Calm - N/A   Clear
11:30 AM 62.6 °F 50.0 °F 63% 29.89 in - Variable 2.3 mph - N/A   Clear
12:00 PM 62.6 °F 48.2 °F 59% 29.89 in - Variable 2.3 mph - N/A   Clear
12:30 PM 64.4 °F 48.2 °F 56% 29.89 in - SW 4.6 mph - N/A   Clear
1:00 PM 66.2 °F 48.2 °F 52% 29.89 in 6.2 mi Variable 2.3 mph - N/A   Partly Cloudy
1:30 PM 68.0 °F 48.2 °F 49% 29.86 in 6.2 mi WSW 6.9 mph - N/A   Partly Cloudy
2:00 PM 66.2 °F 50.0 °F 56% 29.86 in 6.2 mi SSW 6.9 mph - N/A   Partly Cloudy
2:30 PM 68.0 °F 50.0 °F 52% 29.86 in 6.2 mi SW 8.1 mph - N/A   Scattered Clouds
3:00 PM 66.2 °F 46.4 °F 49% 29.86 in 6.2 mi West 4.6 mph - N/A   Scattered Clouds
3:30 PM 66.2 °F 50.0 °F 56% 29.86 in 6.2 mi SW 9.2 mph - N/A   Scattered Clouds
4:00 PM 66.2 °F 50.0 °F 56% 29.86 in 6.2 mi SSW 9.2 mph - N/A   Mostly Cloudy
4:30 PM 68.0 °F 51.8 °F 56% 29.86 in 6.2 mi South 10.4 mph - N/A   Scattered Clouds
5:00 PM 68.0 °F 53.6 °F 60% 29.86 in 6.2 mi South 10.4 mph - N/A   Partly Cloudy
5:30 PM 66.2 °F 53.6 °F 64% 29.86 in 6.2 mi South 8.1 mph - N/A   Partly Cloudy
6:00 PM 68.0 °F 53.6 °F 60% 29.86 in 6.2 mi South 9.2 mph - N/A   Partly Cloudy
6:30 PM 66.2 °F 53.6 °F 64% 29.86 in 6.2 mi South 8.1 mph - N/A   Partly Cloudy
7:00 PM 66.2 °F 53.6 °F 64% 29.86 in 6.2 mi South 6.9 mph - N/A   Scattered Clouds
7:30 PM 64.4 °F 51.8 °F 64% 29.89 in 6.2 mi South 8.1 mph - N/A   Scattered Clouds
8:00 PM 64.4 °F 53.6 °F 68% 29.89 in 6.2 mi SSW 8.1 mph - N/A Rain Light Rain Showers
8:30 PM 64.4 °F 53.6 °F 68% 29.92 in 6.2 mi SW 11.5 mph - N/A   Scattered Clouds
9:00 PM 62.6 °F 53.6 °F 72% 29.92 in 6.2 mi SW 9.2 mph - N/A   Partly Cloudy
9:30 PM 62.6 °F 53.6 °F 72% 29.92 in 6.2 mi SW 8.1 mph - N/A   Partly Cloudy
10:00 PM 62.6 °F 53.6 °F 72% 29.92 in - SW 8.1 mph - N/A   Clear
10:30 PM 62.6 °F 53.6 °F 72% 29.95 in - SSW 8.1 mph - N/A   Clear
11:00 PM 60.8 °F 53.6 °F 77% 29.95 in - SSW 3.5 mph - N/A   Clear
11:30 PM 60.8 °F 53.6 °F 77% 29.95 in - South 3.5 mph - N/A   Clear